Overview Statistics Trail Chart Weather Telemetry Raw packets
 

This is the latest recevied packets stored in our database for station/object DA6GD-01. If no packets are shown the sender has not sent any packets the latest 24 hours.

If you compare the raw packets with similar data from other websites it may differ (especially the path), the reason is that we are not collecting packets from the same APRS-IS servers. Each APRS-IS server performes duplicate filtering, and which packet that is considered to be a duplicate may differ depending on which APRS-IS server you receive your data from.

<< 1 2 3 4 >>

1788583799: DA6GD-01>APRSMC,TCPIP*,qAR,DJ1DZ-1:T#466,1005.5,24.5,59.9,1016.3,0.0,00000000

1788583799: DA6GD-01>APRSMC,TCPIP*,qAR,DJ1DZ-1:!5130.23N/00724.77E#/B=100/A=000312/N2

1788581969: DA6GD-01>APRSMC,TCPIP*,qAR,DJ1DZ-1:T#465,1005.1,24.5,60.5,1015.9,0.0,00000000

1788581969: DA6GD-01>APRSMC,TCPIP*,qAR,DJ1DZ-1:!5130.23N/00724.77E#/B=100/A=000318/N3

1788580145: DA6GD-01>APRSMC,TCPIP*,qAR,DJ1DZ-1:T#464,1004.9,24.5,61.4,1015.7,0.0,00000000

1788580145: DA6GD-01>APRSMC,TCPIP*,qAR,DJ1DZ-1:!5130.23N/00724.77E#/B=100/A=000318/N3

1788578316: DA6GD-01>APRSMC,TCPIP*,qAR,DJ1DZ-1:T#463,1004.9,24.6,62.0,1015.6,0.0,00000000

1788578316: DA6GD-01>APRSMC,TCPIP*,qAR,DJ1DZ-1:!5130.23N/00724.77E#/B=100/A=000299/N3

1788575837: DA6GD-01>APRSMC,TCPIP*,qAR,DJ1DZ-1:T#462,1004.8,24.6,62.2,1015.5,0.0,00000000

1788575837: DA6GD-01>APRSMC,TCPIP*,qAR,DJ1DZ-1:!5130.24N/00724.77E#/B=100/A=000315/N2

1788573981: DA6GD-01>APRSMC,TCPIP*,qAR,DJ1DZ-1::DA6GD-01 :PARM.Press,Temp.in,Hum,QNH,Temp.out,track,-,-,-,-,-,-,-

1788573981: DA6GD-01>APRSMC,TCPIP*,qAR,DJ1DZ-1::DA6GD-01 :UNIT.hPa,C deg,%,hPa,C deg,Y/N,O/N,O/N,O/N,O/N,O/N,O/N,O/N

1788573981: DA6GD-01>APRSMC,TCPIP*,qAR,DJ1DZ-1:T#461,1004.6,24.7,62.1,1015.4,0.0,00000000

1788573981: DA6GD-01>APRSMC,TCPIP*,qAR,DJ1DZ-1::DA6GD-01 :EQNS.0,1,0,0,1,0,0,1,0,0,1,0,0,1,0

1788573981: DA6GD-01>APRSMC,TCPIP*,qAR,DJ1DZ-1:!5130.24N/00724.77E#/B=100/A=000331/N2

1788571572: DA6GD-01>APRSMC,TCPIP*,qAR,DB0OHL-12::DA6GD-01 :PARM.Press,Temp.in,Hum,QNH,Temp.out,track,-,-,-,-,-,-,-

1788571572: DA6GD-01>APRSMC,TCPIP*,qAR,DB0OHL-12::DA6GD-01 :UNIT.hPa,C deg,%,hPa,C deg,Y/N,O/N,O/N,O/N,O/N,O/N,O/N,O/N

1788571572: DA6GD-01>APRSMC,TCPIP*,qAR,DB0OHL-12:T#461,1004.3,24.7,62.4,1015.1,0.0,00000000

1788571572: DA6GD-01>APRSMC,TCPIP*,qAR,DB0OHL-12::DA6GD-01 :EQNS.0,1,0,0,1,0,0,1,0,0,1,0,0,1,0

1788571553: DA6GD-01>APRSMC,TCPIP*,qAR,DJ1DZ-1:T#460,1004.3,24.7,62.4,1015.1,0.0,00000000

1788571553: DA6GD-01>APRSMC,TCPIP*,qAR,DJ1DZ-1:!5130.23N/00724.77E#/B=100/A=000308/N2

1788569286: DA6GD-01>APRSMC,TCPIP*,qAR,DJ1DZ-1:T#459,1004.3,24.8,62.6,1015.0,0.0,00000000

1788569286: DA6GD-01>APRSMC,TCPIP*,qAR,DJ1DZ-1:!5130.23N/00724.77E#/B=100/A=000344/N3

1788567448: DA6GD-01>APRSMC,TCPIP*,qAR,DJ1DZ-1:T#458,1004.2,24.9,63.0,1015.0,0.0,00000000

1788567448: DA6GD-01>APRSMC,TCPIP*,qAR,DJ1DZ-1:!5130.23N/00724.77E#/B=100/A=000344/N3